Location: Pontbriand
(46.1542°N, 71.2542°W)
Time: 15:42:52
(UTC+00:00)

Envisat - Pass Details

Date: 06 October 2022
Orbit: 763 x 765 km, 98.2° (Epoch: 30 November)

Event Time Altitude Azimuth Distance (km) Brightness Sun altitude
Rises 08:46:23 0° 17° (NNE) 3,244 6.7 -22.0°
Reaches altitude 10° 08:48:45 10° 23° (NNE) 2,313 6.0 -21.6°
Maximum altitude 08:53:44 53° 100° (E) 944 3.8 -20.8°
Drops below altitude 10° 08:58:40 10° 177° (S) 2,295 5.4 -20.0°
Sets 09:01:01 0° 182° (S) 3,216 6.1 -19.6°
